User: anonymous   Login
Location: Unspecified
(0.0000°N, 0.0000°E)
Time: 10:52:33
(UTC+00:00)
Language:

OBJECT NZ - Orbit

View from above orbital plane
View from above orbital plane
View from above satellite
View from above satellite

Ground track
Ground track

The orbit data is extracted from the following two-line orbital elements,

1 43551U 98067NZ  19111.85587824  .00015120  00000-0  18042-3 0  9995
2 43551  51.6380 272.5538 0005872 286.3909  73.6439 15.61258448 44031
Epoch (UTC): 21 April 2019 20:32:27
Eccentricity: 0.0005872
inclination: 51.6380°
perigee height: 380 km
apogee height: 388 km
right ascension of ascending node: 272.5538°
argument of perigee: 286.3909°
revolutions per day: 15.61258448
mean anomaly at epoch: 73.6439°
orbit number at epoch: 4403

The dashed part of the orbit path shows where the satellite is in the earth's shadow,  

DLR